Location: Bourguignon
(49.5441°N, 3.1585°E)
Time: 11:18:12
(UTC+00:00)

Cosmos 2333 Rocket - Pass Details

Date: 15 May 2026
Orbit: 841 x 862 km, 70.8° (Epoch: 5 June)

Event Time Altitude Azimuth Distance (km) Brightness Sun altitude
Rises 21:34:48 0° 325° (NW) 3,424 7.2 -15.7°
Reaches altitude 10° 21:37:23 10° 318° (NW) 2,487 5.9 -15.9°
Maximum altitude 21:42:37 38° 252° (WSW) 1,274 3.2 -16.3°
Enters shadow 21:46:30 17° 193° (SSW) 2,037 3.8 -16.7°
